User: anonymous   Login
Location: Caltech
(34.1382°N, 118.1253°W)
Time: 12:16:38
(UTC-07:00)
Language:

HO-68 - Orbit

View from above orbital plane
View from above orbital plane
View from above satellite
View from above satellite

Ground track
Ground track

The orbit data is extracted from the following two-line orbital elements,

1 36122U 09072B   18170.90070589 -.00000034 +00000-0 +21047-4 0  9993
2 36122 100.0748 185.4092 0008261 105.0829 255.1199 13.16345014409011
Epoch (UTC): 19 June 2018 21:37:00
Eccentricity: 0.0008261
inclination: 100.0748°
perigee height: 1192 km
apogee height: 1205 km
right ascension of ascending node: 185.4092°
argument of perigee: 105.0829°
revolutions per day: 13.16345014
mean anomaly at epoch: 255.1199°
orbit number at epoch: 40901

The dashed part of the orbit path shows where the satellite is in the earth's shadow,  

DLR